Location: Cronhütte
(48.9135°N, 9.6869°E)
Time: 09:08:04
(UTC+00:00)

Cosmos 2333 Rocket - Pass Details

Date: 23 May 2024
Orbit: 838 x 863 km, 70.8° (Epoch: 15 June)

Event Time Altitude Azimuth Distance (km) Brightness Sun altitude
Rises 02:30:32 0° 326° (NNW) 3,426 5.5 -8.3°
Reaches altitude 10° 02:33:06 10° 320° (NW) 2,490 4.7 -8.0°
Maximum altitude 02:38:26 41° 252° (WSW) 1,217 2.7 -7.4°
Drops below altitude 10° 02:43:45 10° 183° (S) 2,488 4.2 -6.8°
Sets 02:46:19 0° 177° (S) 3,423 5.0 -6.4°
